WD5U-1 Weather Reports


Display with metric or nautical units.
time (UTC)temp
F
wind
direction
speed
MPH
gust
MPH
rain 1hr
in
rain 24hr
in
rain mn
in
humidity
%
barometer
mb
20260506191024 63 35 13.0 18.0 0.00 0.00 0.00 67 1015.5
20260506190823 63 29 10.0 16.0 0.00 0.00 0.00 67 1015.8
20260506190621 62 38 10.0 15.0 0.00 0.00 0.00 67 1015.8
20260506190440 62 46 10.0 15.0 0.00 0.00 0.00 67 1015.8
20260506190218 64 17 5.0 9.0 0.00 0.00 0.00 65 1015.8
20260506190038 63 37 11.0 15.0 0.00 0.00 0.00 68 1015.9
20260506185827 62 25 10.0 16.0 0.00 0.00 0.00 68 1015.9
20260506185626 61 26 8.0 13.0 0.00 0.00 0.00 68 1016.0
20260506185423 61 38 10.0 14.0 0.00 0.00 0.00 68 1015.8
20260506185221 62 22 11.0 17.0 0.00 0.00 0.00 68 1015.8
20260506185040 61 25 10.0 14.0 0.00 0.00 0.00 68 1016.0
20260506184818 61 18 11.0 17.0 0.00 0.00 0.00 68 1016.1
20260506184616 62 17 12.0 18.0 0.00 0.00 0.00 67 1016.0
20260506184425 62 26 8.0 12.0 0.00 0.00 0.00 68 1016.1
20260506184224 63 12 7.0 11.0 0.00 0.00 0.00 67 1016.3
20260506184024 63 5 7.0 13.0 0.00 0.00 0.00 66 1016.0
20260506183821 62 27 11.0 17.0 0.00 0.00 0.00 68 1016.1
20260506183619 62 11 13.0 17.0 0.00 0.00 0.00 67 1015.9
20260506183418 62 13 10.0 15.0 0.00 0.00 0.00 67 1016.1
20260506183216 62 16 11.0 16.0 0.00 0.00 0.00 68 1016.1
20260506183046 62 37 8.0 14.0 0.00 0.00 0.00 68 1016.0
20260506182824 61 49 11.0 16.0 0.00 0.00 0.00 70 1015.8
20260506182624 60 36 14.0 18.0 0.00 0.00 0.00 70 1015.9
20260506182501 60 27 17.0 22.0 0.00 0.00 0.00 70 1015.9
20260506182222 60 32 11.0 18.0 0.00 0.00 0.00 70 1016.2
20260506182018 61 25 14.0 19.0 0.00 0.00 0.00 69 1016.2
20260506181817 61 21 14.0 20.0 0.00 0.00 0.00 70 1016.0
20260506181645 60 29 10.0 13.0 0.00 0.00 0.00 70 1015.9
20260506181424 60 25 17.0 21.0 0.00 0.00 0.00 70 1015.9
20260506181222 60 29 17.0 21.0 0.00 0.00 0.00 70 1016.0
20260506181021 61 21 15.0 20.0 0.00 0.00 0.00 69 1015.9
20260506180819 62 15 13.0 19.0 0.00 0.00 0.00 68 1015.9
20260506180618 61 25 9.0 14.0 0.00 0.00 0.00 70 1016.0
20260506180416 61 7 13.0 19.0 0.00 0.00 0.00 69 1015.9
20260506180225 61 16 9.0 15.0 0.00 0.00 0.00 69 1016.3
20260506180023 60 22 12.0 19.0 0.00 0.00 0.00 70 1016.3
20260506175822 61 26 9.0 16.0 0.00 0.00 0.00 69 1016.3
20260506175620 60 29 11.0 17.0 0.00 0.00 0.00 69 1016.1
20260506175459 60 15 14.0 21.0 0.00 0.00 0.00 70 1016.2
20260506175218 60 17 13.0 22.0 0.00 0.00 0.00 70 1016.2
20260506175018 62 10 11.0 21.0 0.00 0.00 0.00 68 1016.3
20260506174825 61 357 9.0 16.0 0.00 0.00 0.00 68 1016.3
20260506174623 61 3 8.0 13.0 0.00 0.00 0.00 69 1016.4
20260506174442 59 4 11.0 15.0 0.00 0.00 0.00 70 1016.3
20260506174220 59 17 13.0 19.0 0.00 0.00 0.00 70 1016.4
20260506174019 60 13 12.0 20.0 0.00 0.00 0.00 69 1016.5
20260506173817 60 11 11.0 15.0 0.00 0.00 0.00 70 1016.6
20260506173615 60 18 11.0 14.0 0.00 0.00 0.00 70 1016.5
20260506173424 58 47 12.0 21.0 0.00 0.00 0.00 71 1016.5
20260506173223 59 17 15.0 22.0 0.00 0.00 0.00 70 1016.6
20260506173021 60 13 9.0 17.0 0.00 0.00 0.00 69 1016.6
20260506172840 61 3 8.0 15.0 0.00 0.00 0.00 69 1016.4
20260506172659 60 13 14.0 23.0 0.00 0.00 0.00 70 1016.3
20260506172417 60 13 12.0 19.0 0.00 0.00 0.00 69 1016.3
20260506172216 58 21 12.0 15.0 0.00 0.00 0.00 71 1016.5
20260506172024 58 47 13.0 19.0 0.00 0.00 0.00 71 1016.7
20260506171824 59 357 8.0 17.0 0.00 0.00 0.00 70 1016.8
20260506171621 59 8 9.0 19.0 0.00 0.00 0.00 72 1016.7
20260506171440 58 44 13.0 18.0 0.00 0.00 0.00 72 1016.4
20260506171238 58 49 14.0 22.0 0.00 0.00 0.00 72 1016.6
20260506171017 57 30 17.0 21.0 0.00 0.00 0.00 72 1016.7
20260506170827 58 11 13.0 18.0 0.00 0.00 0.00 72 1016.6
20260506170644 58 22 14.0 19.0 0.00 0.00 0.00 72 1016.8
20260506170423 57 8 10.0 18.0 0.00 0.00 0.00 73 1016.7
20260506170221 56 17 14.0 23.0 0.00 0.00 0.00 73 1016.8
20260506170020 57 28 17.0 19.0 0.00 0.00 0.00 72 1016.7
20260506165818 57 25 13.0 19.0 0.00 0.00 0.00 72 1016.7
20260506165637 58 28 12.0 16.0 0.00 0.00 0.00 72 1016.7
20260506165507 57 27 10.0 17.0 0.00 0.00 0.00 73 1016.8
20260506165224 56 40 16.0 23.0 0.00 0.00 0.00 73 1016.7
20260506165022 56 29 15.0 20.0 0.00 0.00 0.00 74 1016.6
20260506164821 56 36 15.0 24.0 0.00 0.00 0.00 74 1016.7
20260506164619 56 26 13.0 18.0 0.00 0.00 0.00 74 1016.6
20260506164419 56 28 16.0 21.0 0.00 0.00 0.00 73 1016.7
20260506164218 57 24 11.0 19.0 0.00 0.00 0.00 74 1016.5
20260506164025 57 44 10.0 15.0 0.00 0.00 0.00 73 1016.6
20260506163823 56 23 11.0 15.0 0.00 0.00 0.00 74 1016.5
20260506163622 56 35 18.0 22.0 0.00 0.00 0.00 74 1016.4
20260506163440 55 23 15.0 20.0 0.00 0.00 0.00 75 1016.5
20260506163219 55 27 16.0 19.0 0.00 0.00 0.00 75 1016.5
20260506163038 55 28 10.0 13.0 0.00 0.00 0.00 76 1016.4
20260506162818 55 42 14.0 18.0 0.00 0.00 0.00 76 1016.8
20260506162625 54 15 11.0 18.0 0.00 0.00 0.00 76 1016.7
20260506162423 55 28 15.0 23.0 0.00 0.00 0.00 76 1016.8
20260506162245 55 13 5.0 8.0 0.00 0.00 0.00 76 1016.8
20260506162021 54 13 9.0 11.0 0.00 0.00 0.00 77 1016.7
20260506161819 54 24 15.0 20.0 0.00 0.00 0.00 77 1016.6
20260506161658 54 8 11.0 19.0 0.00 0.00 0.00 77 1016.4
20260506161416 54 26 14.0 21.0 0.00 0.00 0.00 77 1016.3
20260506161226 54 14 10.0 13.0 0.00 0.00 0.00 77 1016.3
20260506161023 54 19 9.0 13.0 0.00 0.00 0.00 78 1016.5
20260506160822 54 14 12.0 17.0 0.00 0.00 0.00 77 1016.6
20260506160620 53 19 10.0 14.0 0.00 0.00 0.00 78 1016.5
20260506160439 53 19 12.0 16.0 0.00 0.00 0.00 78 1016.8
20260506160217 53 18 11.0 15.0 0.00 0.00 0.00 78 1016.8
20260506160015 53 11 9.0 13.0 0.00 0.00 0.00 78 1016.7
20260506155824 53 13 10.0 15.0 0.00 0.00 0.00 78 1017.0
20260506155643 53 25 10.0 14.0 0.00 0.00 0.00 79 1017.1
20260506155421 53 21 10.0 13.0 0.00 0.00 0.00 78 1017.1
20260506155220 53 22 9.0 11.0 0.00 0.00 0.00 79 1017.3
20260506155018 53 24 7.0 9.0 0.00 0.00 0.00 80 1017.3
20260506154817 53 33 6.0 8.0 0.00 0.00 0.00 79 1017.4
20260506154625 53 39 8.0 11.0 0.00 0.00 0.00 79 1017.7
20260506154424 53 34 8.0 13.0 0.00 0.00 0.00 79 1017.5
20260506154243 53 35 10.0 12.0 0.00 0.00 0.00 79 1017.9
20260506154021 52 28 9.0 13.0 0.00 0.00 0.00 79 1017.6
20260506153820 53 19 10.0 13.0 0.00 0.00 0.00 78 1017.9
20260506153640 53 11 8.0 10.0 0.00 0.00 0.00 78 1017.8
20260506153417 53 21 9.0 11.0 0.00 0.00 0.00 78 1017.9
20260506153225 53 22 8.0 11.0 0.00 0.00 0.00 78 1018.3
20260506153024 53 32 7.0 8.0 0.00 0.00 0.00 78 1018.0
20260506152823 53 41 6.0 9.0 0.00 0.00 0.00 79 1018.0
20260506152621 53 53 5.0 6.0 0.00 0.00 0.00 79 1018.1
20260506152419 52 42 3.0 6.0 0.00 0.00 0.00 79 1018.1
20260506152218 53 27 7.0 10.0 0.00 0.00 0.00 78 1017.8
20260506152017 53 15 5.0 10.0 0.00 0.00 0.00 79 1017.8
20260506151825 53 17 9.0 15.0 0.00 0.00 0.00 78 1017.4
20260506151624 53 9 10.0 17.0 0.00 0.00 0.00 78 1017.5
20260506151423 53 3 9.0 13.0 0.00 0.00 0.00 78 1017.3
20260506151221 53 17 7.0 10.0 0.00 0.00 0.00 79 1017.2
20260506151021 52 12 9.0 14.0 0.00 0.00 0.00 79 1017.1
20260506150818 52 24 13.0 19.0 0.00 0.00 0.00 79 1017.0
20260506150616 52 11 12.0 17.0 0.00 0.00 0.00 79 1017.0
20260506150425 52 14 8.0 13.0 0.00 0.00 0.00 79 1016.9
20260506150224 52 23 10.0 13.0 0.00 0.00 0.00 79 1016.7
20260506150022 52 28 14.0 19.0 0.00 0.00 0.00 79 1016.8
20260506145821 52 17 12.0 19.0 0.00 0.00 0.00 79 1016.8
20260506145619 52 17 11.0 18.0 0.00 0.00 0.00 80 1016.9
20260506145418 52 8 10.0 15.0 0.00 0.00 0.00 79 1017.0
20260506145218 52 5 7.0 12.0 0.00 0.00 0.00 80 1017.1
20260506145024 52 12 11.0 16.0 0.00 0.00 0.00 79 1017.2
20260506144823 52 23 12.0 18.0 0.00 0.00 0.00 80 1016.9
20260506144642 52 12 7.0 11.0 0.00 0.00 0.00 80 1016.8
20260506144421 52 9 11.0 21.0 0.00 0.00 0.00 80 1016.9
20260506144219 52 20 12.0 15.0 0.00 0.00 0.00 79 1016.7
20260506144017 52 20 12.0 15.0 0.00 0.00 0.00 80 1016.9
20260506143819 52 16 9.0 13.0 0.00 0.00 0.00 80 1017.0
20260506143644 52 19 8.0 11.0 0.00 0.00 0.00 80 1016.7
20260506143423 52 16 13.0 15.0 0.00 0.00 0.00 80 1016.8
20260506143221 52 29 8.0 11.0 0.00 0.00 0.00 81 1016.7
20260506143023 52 30 10.0 13.0 0.00 0.00 0.00 81 1016.8
20260506142818 52 21 7.0 12.0 0.00 0.00 0.00 81 1016.9
20260506142637 52 35 10.0 14.0 0.00 0.00 0.00 81 1016.9
20260506142425 52 31 11.0 15.0 0.00 0.00 0.00 81 1016.7
20260506142405 52 24 10.0 17.0 0.00 0.00 0.00 82 1016.7
20260506142023 52 26 5.0 6.0 0.00 0.00 0.00 83 1016.6
20260506141822 52 18 4.0 6.0 0.00 0.00 0.00 83 1016.9
20260506141620 52 22 7.0 10.0 0.00 0.00 0.00 83 1016.9
20260506141418 52 14 8.0 11.0 0.00 0.00 0.00 82 1017.1
20260506141219 51 2 8.0 11.0 0.00 0.00 0.00 83 1017.0
20260506141026 51 19 11.0 13.0 0.00 0.00 0.00 82 1016.7
20260506140824 51 11 9.0 10.0 0.00 0.00 0.00 83 1016.8
20260506140625 51 18 9.0 13.0 0.00 0.00 0.00 82 1016.7
20260506140421 51 20 10.0 14.0 0.00 0.00 0.00 83 1016.5
20260506140219 51 19 7.0 11.0 0.00 0.00 0.00 83 1016.5
20260506140038 51 13 10.0 14.0 0.00 0.00 0.00 83 1016.5
20260506135817 51 13 7.0 9.0 0.00 0.00 0.00 83 1016.3
20260506135645 51 21 8.0 12.0 0.00 0.00 0.00 83 1016.1
20260506135424 51 20 8.0 11.0 0.00 0.00 0.00 83 1016.0
20260506135224 51 26 13.0 15.0 0.00 0.00 0.00 83 1015.9
20260506135021 51 38 12.0 16.0 0.00 0.00 0.00 83 1016.0
20260506134819 51 31 9.0 14.0 0.00 0.00 0.00 84 1015.9
20260506134618 51 21 8.0 11.0 0.00 0.00 0.00 84 1016.1
20260506134416 51 22 12.0 16.0 0.00 0.00 0.00 84 1016.1
20260506134225 51 18 11.0 16.0 0.00 0.00 0.00 84 1016.2
20260506134024 51 22 15.0 21.0 0.00 0.00 0.00 84 1016.0
20260506133823 51 19 13.0 17.0 0.00 0.00 0.00 84 1016.1
20260506133622 51 15 10.0 15.0 0.00 0.00 0.00 84 1015.8
20260506133439 51 9 9.0 16.0 0.00 0.00 0.00 84 1015.8
20260506133218 51 11 10.0 14.0 0.00 0.00 0.00 84 1015.9
20260506133016 51 11 8.0 12.0 0.00 0.00 0.00 85 1015.9
20260506132825 51 24 11.0 17.0 0.00 0.00 0.00 84 1016.0
20260506132623 51 19 11.0 14.0 0.00 0.00 0.00 85 1015.9
20260506132422 51 16 12.0 19.0 0.00 0.00 0.00 84 1016.0
20260506132221 51 15 10.0 13.0 0.00 0.00 0.00 85 1015.7
20260506132019 50 12 7.0 10.0 0.00 0.00 0.00 86 1015.8
20260506131818 50 13 9.0 13.0 0.00 0.00 0.00 86 1015.7
20260506131616 50 14 9.0 13.0 0.00 0.00 0.00 86 1015.8
20260506131426 50 13 8.0 12.0 0.00 0.00 0.00 87 1015.8
20260506131243 50 21 8.0 12.0 0.00 0.00 0.00 87 1015.8
20260506131042 50 9 8.0 12.0 0.00 0.00 0.00 87 1015.6
20260506130821 50 7 7.0 10.0 0.00 0.00 0.00 87 1015.6
20260506130619 50 14 5.0 8.0 0.00 0.00 0.00 88 1015.5
20260506130420 50 12 9.0 14.0 0.00 0.00 0.00 87 1015.5
20260506130216 50 16 8.0 10.0 0.00 0.00 0.00 88 1015.6
20260506130024 50 10 9.0 13.0 0.00 0.00 0.00 88 1015.6
20260506125823 50 16 9.0 12.0 0.00 0.00 0.00 88 1015.4
20260506125622 49 24 12.0 16.0 0.00 0.00 0.00 89 1015.1
20260506125420 49 24 8.0 11.0 0.00 0.00 0.00 89 1015.2
20260506125220 49 16 9.0 15.0 0.00 0.00 0.00 90 1015.4
20260506125019 49 10 11.0 14.0 0.00 0.00 0.00 90 1015.2
20260506124816 49 15 10.0 15.0 0.00 0.00 0.00 90 1015.2
20260506124624 49 20 9.0 13.0 0.00 0.00 0.00 91 1015.2
20260506124444 49 11 9.0 13.0 0.00 0.00 0.00 91 1015.2
20260506124221 49 13 7.0 10.0 0.00 0.00 0.00 92 1015.2
20260506124040 49 12 8.0 14.0 0.00 0.00 0.00 91 1015.2
20260506123818 49 13 11.0 14.0 0.00 0.00 0.00 91 1015.1
20260506123617 49 15 8.0 11.0 0.00 0.00 0.00 91 1015.2
20260506123426 49 0 8.0 10.0 0.00 0.00 0.00 92 1015.2
20260506123224 49 11 9.0 12.0 0.00 0.00 0.00 91 1015.0
20260506123022 49 7 8.0 11.0 0.00 0.00 0.00 91 1015.1
20260506122821 49 13 9.0 14.0 0.00 0.00 0.00 91 1015.1
20260506122620 49 7 9.0 14.0 0.00 0.00 0.00 91 1015.0
20260506122418 49 17 12.0 17.0 0.00 0.00 0.00 91 1015.0
20260506122217 49 19 12.0 16.0 0.00 0.00 0.00 91 1015.0
20260506122025 49 3 9.0 14.0 0.00 0.00 0.00 91 1015.1
20260506121824 49 9 9.0 14.0 0.00 0.00 0.00 91 1015.2
20260506121642 49 15 8.0 11.0 0.00 0.00 0.00 91 1015.2
20260506121421 49 11 11.0 14.0 0.00 0.00 0.00 90 1015.4
20260506121240 49 11 12.0 17.0 0.00 0.00 0.00 90 1015.4
20260506121018 49 17 9.0 13.0 0.00 0.00 0.00 90 1015.3
20260506120816 49 10 7.0 12.0 0.00 0.00 0.00 90 1015.3
20260506120625 49 9 8.0 14.0 0.00 0.00 0.00 90 1015.2
20260506120423 49 5 7.0 10.0 0.00 0.00 0.00 91 1015.1
20260506120222 49 7 9.0 15.0 0.00 0.00 0.00 90 1015.2
20260506120041 49 9 10.0 18.0 0.00 0.00 0.00 90 1015.1
20260506115820 49 11 10.0 14.0 0.00 0.00 0.00 90 1015.1
20260506115617 49 13 8.0 11.0 0.00 0.00 0.00 90 1015.2
20260506115436 49 5 7.0 12.0 0.00 0.00 0.00 90 1015.4
20260506115227 49 10 6.0 8.0 0.00 0.00 0.00 90 1015.2
20260506115023 49 13 8.0 12.0 0.00 0.00 0.00 90 1015.1
20260506114822 49 346 9.0 16.0 0.00 0.00 0.00 90 1015.1
20260506114620 49 360 7.0 10.0 0.00 0.00 0.00 90 1014.9
20260506114419 49 359 8.0 12.0 0.00 0.00 0.00 90 1014.8
20260506114220 49 2 9.0 15.0 0.00 0.00 0.00 90 1014.7
20260506114016 49 9 7.0 12.0 0.00 0.00 0.00 90 1014.8
20260506113844 49 9 10.0 13.0 0.00 0.00 0.00 90 1014.4
20260506113623 49 8 7.0 11.0 0.00 0.00 0.00 90 1014.5
20260506113422 49 12 12.0 18.0 0.00 0.00 0.00 90 1014.8
20260506113303 49 353 7.0 13.0 0.00 0.00 0.00 90 1014.7
20260506113019 49 9 10.0 15.0 0.00 0.00 0.00 90 1014.6
20260506112817 49 10 10.0 15.0 0.00 0.00 0.00 90 1014.5
20260506112616 49 12 9.0 13.0 0.00 0.00 0.00 90 1014.6
20260506112427 49 18 11.0 20.0 0.00 0.00 0.00 90 1014.2
20260506112223 49 350 5.0 11.0 0.00 0.00 0.00 90 1014.5
20260506112021 49 11 7.0 13.0 0.00 0.00 0.00 90 1014.4
20260506111820 49 1 10.0 14.0 0.00 0.00 0.00 90 1014.3
20260506111618 49 358 12.0 20.0 0.00 0.00 0.00 90 1014.3
20260506111437 49 356 7.0 14.0 0.00 0.00 0.00 91 1014.3
20260506111228 49 4 10.0 19.0 0.00 0.00 0.00 90 1014.3
20260506111024 49 7 12.0 17.0 0.00 0.00 0.00 91 1014.3
20260506110823 49 5 8.0 11.0 0.00 0.00 0.00 91 1014.3
20260506110621 49 9 12.0 15.0 0.00 0.00 0.00 91 1014.2
20260506110440 49 9 11.0 19.0 0.00 0.00 0.00 91 1014.3
20260506110218 49 10 9.0 14.0 0.00 0.00 0.00 91 1014.1
20260506110018 49 9 11.0 17.0 0.00 0.00 0.00 91 1014.2
20260506105825 49 1 14.0 18.0 0.00 0.00 0.00 91 1014.2
20260506105624 49 5 11.0 16.0 0.00 0.00 0.00 91 1014.4
20260506105444 49 8 9.0 14.0 0.00 0.00 0.00 91 1014.4
20260506105221 49 6 8.0 13.0 0.00 0.00 0.00 91 1014.3
20260506105019 49 355 9.0 22.0 0.00 0.00 0.00 90 1014.3
20260506104818 49 356 10.0 16.0 0.00 0.00 0.00 90 1014.0
20260506104617 49 353 8.0 17.0 0.00 0.00 0.00 90 1014.0
20260506104425 49 9 8.0 13.0 0.00 0.00 0.00 89 1014.1
20260506104226 49 2 8.0 12.0 0.00 0.00 0.00 89 1014.0
20260506104022 49 1 9.0 14.0 0.00 0.00 0.00 89 1014.1
20260506103821 49 3 12.0 16.0 0.00 0.00 0.00 89 1014.2
20260506103619 50 5 10.0 17.0 0.00 0.00 0.00 88 1014.3
20260506103418 50 356 11.0 18.0 0.00 0.00 0.00 87 1014.1
20260506103216 50 340 8.0 15.0 0.00 0.00 0.00 87 1014.0
20260506103025 50 15 12.0 17.0 0.00 0.00 0.00 86 1014.1
20260506102823 50 16 12.0 17.0 0.00 0.00 0.00 86 1013.9
20260506102622 50 1 13.0 17.0 0.00 0.00 0.00 85 1014.0
20260506102421 51 339 5.0 11.0 0.00 0.00 0.00 85 1014.1
20260506102219 51 347 7.0 13.0 0.00 0.00 0.00 85 1013.9
20260506102018 51 354 5.0 11.0 0.00 0.00 0.00 85 1013.9
20260506101816 51 342 11.0 19.0 0.00 0.00 0.00 85 1013.7
20260506101645 51 343 9.0 17.0 0.00 0.00 0.00 84 1013.9
20260506101425 51 350 8.0 14.0 0.00 0.00 0.00 84 1014.0
20260506101222 51 333 9.0 17.0 0.00 0.00 0.00 84 1013.9
20260506101020 51 340 10.0 16.0 0.00 0.00 0.00 84 1013.9
20260506100819 51 356 8.0 15.0 0.00 0.00 0.00 84 1013.9
20260506100618 51 10 6.0 12.0 0.00 0.00 0.00 84 1013.7
20260506100436 51 11 11.0 16.0 0.00 0.00 0.00 84 1013.9
20260506100305 51 355 7.0 12.0 0.00 0.00 0.00 84 1013.8
20260506100023 51 5 10.0 14.0 0.00 0.00 0.00 84 1013.5
20260506095844 51 353 7.0 16.0 0.00 0.00 0.00 84 1013.9
20260506095620 51 343 9.0 15.0 0.00 0.00 0.00 84 1014.0
20260506095418 51 1 9.0 19.0 0.00 0.00 0.00 83 1013.6
20260506095217 51 6 11.0 16.0 0.00 0.00 0.00 83 1013.6
20260506095016 52 337 9.0 15.0 0.00 0.00 0.00 83 1013.5
20260506094824 52 4 6.0 9.0 0.00 0.00 0.00 83 1013.4
20260506094442 52 344 8.0 11.0 0.00 0.00 0.00 82 1013.6
20260506094220 52 2 9.0 15.0 0.00 0.00 0.00 82 1013.3
20260506094018 52 358 9.0 18.0 0.00 0.00 0.00 82 1013.4
20260506093817 52 345 5.0 8.0 0.00 0.00 0.00 81 1013.4
20260506093618 52 359 6.0 11.0 0.00 0.00 0.00 81 1013.1
20260506093424 52 12 11.0 16.0 0.00 0.00 0.00 81 1013.0
20260506093223 52 341 11.0 16.0 0.00 0.00 0.00 81 1013.1
20260506093021 52 356 6.0 11.0 0.00 0.00 0.00 81 1012.9
20260506092821 52 9 8.0 12.0 0.00 0.00 0.00 81 1012.8
20260506092658 52 4 8.0 11.0 0.00 0.00 0.00 80 1013.0
20260506092439 52 359 5.0 8.0 0.00 0.00 0.00 80 1012.6
20260506092225 52 358 7.0 11.0 0.00 0.00 0.00 80 1012.9
20260506092024 52 10 7.0 9.0 0.00 0.00 0.00 80 1012.8
20260506091842 52 5 7.0 11.0 0.00 0.00 0.00 80 1012.9
20260506091641 52 12 6.0 10.0 0.00 0.00 0.00 80 1012.9
20260506091439 52 4 10.0 17.0 0.00 0.00 0.00 80 1012.7
20260506091220 52 4 6.0 9.0 0.00 0.00 0.00 80 1013.0
20260506091037 52 6 6.0 11.0 0.00 0.00 0.00 80 1012.9
20260506090825 52 8 7.0 12.0 0.00 0.00 0.00 80 1012.9
20260506090625 52 14 9.0 12.0 0.00 0.00 0.00 80 1012.7
20260506090422 52 12 7.0 10.0 0.00 0.00 0.00 80 1012.7
20260506090241 53 352 6.0 10.0 0.00 0.00 0.00 80 1012.6
20260506090019 53 358 8.0 15.0 0.00 0.00 0.00 80 1012.7
20260506085819 53 10 5.0 8.0 0.00 0.00 0.00 80 1012.6
20260506085636 53 13 10.0 14.0 0.00 0.00 0.00 79 1012.5
20260506085425 53 18 12.0 15.0 0.00 0.00 0.00 79 1012.5
20260506085223 53 3 7.0 11.0 0.00 0.00 0.00 80 1012.5
20260506085022 53 13 10.0 12.0 0.00 0.00 0.00 80 1012.5
20260506084820 53 7 8.0 14.0 0.00 0.00 0.00 80 1012.5
20260506084639 53 359 7.0 11.0 0.00 0.00 0.00 80 1012.7
20260506084418 53 4 6.0 10.0 0.00 0.00 0.00 80 1012.4
20260506084216 53 4 6.0 10.0 0.00 0.00 0.00 80 1012.7
20260506084025 53 13 9.0 13.0 0.00 0.00 0.00 80 1012.6
20260506083825 53 8 8.0 11.0 0.00 0.00 0.00 80 1012.7
20260506083622 53 10 7.0 12.0 0.00 0.00 0.00 80 1012.5
20260506083421 53 352 5.0 8.0 0.00 0.00 0.00 80 1012.6
20260506083219 53 2 6.0 9.0 0.00 0.00 0.00 80 1012.6
20260506083020 53 347 6.0 10.0 0.00 0.00 0.00 80 1012.4
20260506082816 53 358 7.0 11.0 0.00 0.00 0.00 80 1012.6
20260506082627 53 3 8.0 14.0 0.00 0.00 0.00 80 1012.4
20260506082443 53 358 7.0 12.0 0.00 0.00 0.00 80 1012.4
20260506082221 53 352 8.0 11.0 0.00 0.00 0.00 80 1012.4
20260506082020 53 337 6.0 10.0 0.00 0.00 0.00 80 1012.4
20260506081818 53 358 5.0 13.0 0.00 0.00 0.00 80 1012.4
20260506081657 53 354 4.0 8.0 0.00 0.00 0.00 80 1012.6
20260506081416 53 345 5.0 9.0 0.00 0.00 0.00 80 1012.5
20260506081224 53 9 4.0 7.0 0.00 0.00 0.00 81 1012.6
20260506081023 53 359 5.0 8.0 0.00 0.00 0.00 80 1012.6
20260506080821 53 351 5.0 10.0 0.00 0.00 0.00 80 1012.6
20260506080620 53 8 7.0 11.0 0.00 0.00 0.00 80 1012.5
20260506080439 53 11 6.0 11.0 0.00 0.00 0.00 80 1012.5
20260506080217 53 11 7.0 10.0 0.00 0.00 0.00 80 1012.7
20260506073416 53 3 7.0 11.0 0.00 0.00 0.00 80 1012.6
20260506073225 53 18 6.0 8.0 0.00 0.00 0.00 80 1012.3
20260506073024 53 356 5.0 8.0 0.00 0.00 0.00 80 1012.3
20260506072822 53 1 6.0 10.0 0.00 0.00 0.00 80 1012.2
20260506072621 53 9 10.0 14.0 0.00 0.00 0.00 80 1012.5
20260506072420 53 4 9.0 13.0 0.00 0.00 0.00 80 1012.3
20260506072218 53 7 8.0 13.0 0.00 0.00 0.00 80 1012.3
20260506072017 53 9 7.0 12.0 0.00 0.00 0.00 80 1012.5
20260506071846 54 9 9.0 12.0 0.00 0.00 0.00 80 1012.5
20260506071624 54 12 6.0 12.0 0.00 0.00 0.00 80 1012.3
20260506071422 54 11 9.0 12.0 0.00 0.00 0.00 80 1012.3
20260506071221 54 358 7.0 13.0 0.00 0.00 0.00 80 1012.3
20260506071019 54 357 9.0 15.0 0.00 0.00 0.00 80 1012.3
20260506070819 54 6 6.0 12.0 0.00 0.00 0.00 81 1012.2
20260506070616 54 2 8.0 14.0 0.00 0.00 0.00 81 1011.7
20260506070425 54 10 6.0 11.0 0.00 0.00 0.00 81 1011.6
20260506070227 54 28 8.0 13.0 0.00 0.00 0.00 81 1011.6
20260506062416 54 20 7.0 13.0 0.00 0.00 0.00 81 1012.0
20260506062227 54 29 9.0 12.0 0.00 0.00 0.00 82 1012.0
20260506062023 54 19 8.0 16.0 0.00 0.00 0.00 82 1012.3
20260506061843 54 3 6.0 10.0 0.00 0.00 0.00 82 1012.2
20260506061622 54 9 9.0 14.0 0.00 0.00 0.00 82 1012.2
20260506061419 54 11 7.0 9.0 0.00 0.00 0.00 82 1012.0
20260506061217 54 13 7.0 10.0 0.00 0.00 0.00 82 1012.1
20260506061036 54 13 9.0 14.0 0.00 0.00 0.00 82 1012.1
20260506060845 54 16 8.0 12.0 0.00 0.00 0.00 82 1012.3
20260506060623 54 11 7.0 11.0 0.00 0.00 0.00 82 1012.2
20260506060423 54 18 10.0 13.0 0.00 0.00 0.00 82 1011.9
20260506060300 54 16 10.0 13.0 0.00 0.00 0.00 82 1012.0
20260506051225 55 9 9.0 11.0 0.00 0.00 0.00 82 1012.3
20260506051025 55 12 9.0 15.0 0.00 0.00 0.00 82 1012.4
20260506050901 55 7 8.0 13.0 0.00 0.00 0.00 82 1012.2
20260506050639 55 15 5.0 6.0 0.00 0.00 0.00 82 1012.3
20260506050418 55 19 7.0 11.0 0.00 0.00 0.00 82 1012.4
20260506050216 55 16 9.0 13.0 0.00 0.00 0.00 82 1012.3
20260506045041 55 357 6.0 12.0 0.00 0.00 0.00 83 1012.4
20260506044816 55 8 7.0 10.0 0.00 0.00 0.00 83 1012.3
20260506044625 55 8 8.0 13.0 0.00 0.00 0.00 83 1012.1
20260506044444 55 11 11.0 14.0 0.00 0.00 0.00 83 1012.1
20260506044222 55 12 8.0 12.0 0.00 0.00 0.00 83 1012.3
20260506044021 55 10 9.0 12.0 0.00 0.00 0.00 83 1012.1
20260506043820 55 20 11.0 13.0 0.00 0.00 0.00 83 1012.1
20260506043617 55 15 9.0 15.0 0.00 0.00 0.00 82 1012.4
20260506043436 56 355 7.0 15.0 0.00 0.00 0.00 82 1012.3
20260506043247 56 1 7.0 10.0 0.00 0.00 0.00 83 1012.4
20260506043023 56 9 9.0 15.0 0.00 0.00 0.00 83 1012.3
20260506042823 56 358 8.0 12.0 0.00 0.00 0.00 83 1012.5
20260506042620 56 6 12.0 16.0 0.00 0.00 0.00 83 1012.5
20260506042420 56 10 11.0 15.0 0.00 0.00 0.00 83 1012.3
20260506042238 56 11 10.0 15.0 0.00 0.00 0.00 83 1012.3
20260506042016 56 7 8.0 15.0 0.00 0.00 0.00 83 1012.3
20260506041825 56 12 13.0 17.0 0.00 0.00 0.00 83 1012.3
20260506041623 56 10 9.0 14.0 0.00 0.00 0.00 84 1012.2
20260506041442 56 14 12.0 18.0 0.00 0.00 0.00 84 1012.1
20260506041220 56 12 11.0 14.0 0.00 0.00 0.00 84 1012.1
20260506041018 56 8 12.0 18.0 0.00 0.00 0.00 84 1012.1
20260506040817 56 6 7.0 10.0 0.00 0.00 0.00 84 1012.0
20260506040616 56 10 8.0 13.0 0.00 0.00 0.00 84 1012.0
20260506040424 56 11 9.0 15.0 0.00 0.00 0.00 84 1012.1
20260506040223 56 17 12.0 17.0 0.00 0.00 0.00 85 1012.3
20260506040021 56 14 12.0 19.0 0.00 0.00 0.00 85 1012.2
20260506035900 56 3 8.0 11.0 0.00 0.00 0.00 86 1012.2
20260506035618 56 18 8.0 13.0 0.00 0.00 0.00 86 1012.2
20260506035417 56 358 8.0 12.0 0.00 0.00 0.00 86 1011.9
20260506035216 56 8 6.0 10.0 0.00 0.00 0.00 86 1012.0
20260506035044 56 2 8.0 12.0 0.00 0.00 0.00 86 1012.0
20260506034903 56 356 6.0 10.0 0.00 0.00 0.00 86 1012.0
20260506034621 57 6 5.0 7.0 0.00 0.00 0.00 86 1012.1
20260506034420 57 358 7.0 11.0 0.00 0.00 0.00 86 1011.9
20260506034219 57 356 7.0 12.0 0.00 0.00 0.00 86 1011.9
20260506034018 57 341 7.0 13.0 0.00 0.00 0.00 86 1011.8
20260506033845 57 15 7.0 11.0 0.00 0.00 0.00 86 1011.9
20260506033624 57 2 5.0 8.0 0.00 0.00 0.00 86 1012.0
20260506033423 57 12 6.0 10.0 0.00 0.00 0.00 86 1012.1
20260506033241 57 12 8.0 11.0 0.00 0.00 0.00 86 1011.8
20260506033020 57 7 5.0 11.0 0.00 0.00 0.00 86 1011.9
20260506032838 57 4 7.0 10.0 0.00 0.00 0.00 86 1011.8
20260506032617 57 6 8.0 14.0 0.00 0.00 0.00 86 1011.8
20260506032425 57 15 8.0 16.0 0.00 0.00 0.00 86 1012.0
20260506032224 57 16 13.0 17.0 0.00 0.00 0.00 86 1011.8
20260506032022 57 15 12.0 19.0 0.00 0.00 0.00 86 1011.6
20260506031821 57 9 11.0 15.0 0.00 0.00 0.00 86 1011.7
20260506031619 57 16 9.0 11.0 0.00 0.00 0.00 86 1011.6
20260506031418 57 11 7.0 11.0 0.00 0.00 0.00 86 1011.5
20260506031217 57 353 8.0 12.0 0.00 0.00 0.00 86 1011.4
20260506031025 58 354 8.0 12.0 0.00 0.00 0.00 86 1011.5
20260506030824 58 16 6.0 11.0 0.00 0.00 0.00 86 1011.4
20260506030622 58 19 8.0 9.0 0.00 0.00 0.00 86 1011.3
20260506030421 58 12 6.0 11.0 0.00 0.00 0.00 86 1011.2
20260506030220 58 25 10.0 15.0 0.00 0.00 0.00 86 1011.3
20260506030018 58 12 7.0 12.0 0.00 0.00 0.00 86 1011.5
20260506025816 58 7 5.0 7.0 0.00 0.00 0.00 86 1011.6
20260506025645 58 12 6.0 8.0 0.00 0.00 0.00 86 1011.4
20260506025423 58 24 8.0 12.0 0.00 0.00 0.00 85 1011.3
20260506025222 58 16 8.0 9.0 0.00 0.00 0.00 85 1011.4
20260506025020 58 22 9.0 12.0 0.00 0.00 0.00 85 1011.3
20260506024819 58 29 7.0 12.0 0.00 0.00 0.00 85 1011.3
20260506024617 58 20 6.0 10.0 0.00 0.00 0.00 85 1011.3
20260506024416 58 13 6.0 10.0 0.00 0.00 0.00 85 1011.3
20260506024225 58 3 7.0 11.0 0.00 0.00 0.00 85 1011.3
20260506024023 58 15 9.0 11.0 0.00 0.00 0.00 85 1011.3
20260506023842 58 24 8.0 14.0 0.00 0.00 0.00 85 1011.2
20260506023620 58 18 8.0 11.0 0.00 0.00 0.00 85 1011.3
20260506023419 59 14 8.0 11.0 0.00 0.00 0.00 85 1011.2
20260506023217 59 7 6.0 11.0 0.00 0.00 0.00 85 1011.3
20260506023016 59 5 7.0 11.0 0.00 0.00 0.00 85 1011.3
20260506022825 59 358 4.0 7.0 0.00 0.00 0.00 85 1011.0
20260506022623 59 1 5.0 6.0 0.00 0.00 0.00 85 1010.9
20260506022421 59 14 5.0 9.0 0.00 0.00 0.00 85 1011.0
20260506022220 59 14 8.0 11.0 0.00 0.00 0.00 85 1010.7
20260506022019 59 2 7.0 12.0 0.00 0.00 0.00 85 1010.7
20260506021837 59 9 8.0 12.0 0.00 0.00 0.00 85 1010.6
20260506021615 59 8 8.0 10.0 0.00 0.00 0.00 85 1010.7
20260506021427 59 28 15.0 17.0 0.00 0.00 0.00 84 1010.6
20260506021223 59 12 6.0 8.0 0.00 0.00 0.00 85 1010.4
20260506021041 59 13 7.0 9.0 0.00 0.00 0.00 85 1010.3
20260506020820 59 15 9.0 13.0 0.00 0.00 0.00 84 1010.0
20260506020619 59 20 9.0 12.0 0.00 0.00 0.00 84 1010.1
20260506020439 59 33 8.0 13.0 0.00 0.00 0.00 84 1009.9
20260506020216 59 16 9.0 16.0 0.00 0.00 0.00 84 1009.9
20260506020024 59 19 11.0 16.0 0.00 0.00 0.00 84 1009.9
20260506015823 59 12 11.0 16.0 0.00 0.00 0.00 84 1009.6
20260506015621 60 17 11.0 17.0 0.00 0.00 0.00 84 1009.6
20260506015421 60 18 11.0 19.0 0.00 0.00 0.00 83 1009.6
20260506015218 60 23 15.0 19.0 0.00 0.00 0.00 83 1009.5
20260506015037 60 14 10.0 14.0 0.00 0.00 0.00 84 1009.3
20260506014825 60 19 12.0 18.0 0.00 0.00 0.00 84 1009.2
20260506014624 60 19 8.0 10.0 0.00 0.00 0.00 83 1009.0
20260506014422 61 18 10.0 11.0 0.00 0.00 0.00 83 1009.0
20260506014221 61 15 11.0 15.0 0.00 0.00 0.00 83 1008.8
20260506014020 61 9 9.0 15.0 0.00 0.00 0.00 83 1008.9
20260506013818 61 11 11.0 17.0 0.00 0.00 0.00 82 1009.0
20260506013616 61 11 12.0 19.0 0.00 0.00 0.00 82 1009.0
20260506013426 61 18 12.0 17.0 0.00 0.00 0.00 82 1008.9
20260506013224 61 17 11.0 18.0 0.00 0.00 0.00 82 1008.9
20260506013023 61 16 11.0 16.0 0.00 0.00 0.00 82 1008.5
20260506012821 62 10 9.0 12.0 0.00 0.00 0.00 82 1008.6
20260506012639 62 11 13.0 19.0 0.00 0.00 0.00 81 1008.5
20260506012418 62 20 12.0 17.0 0.00 0.00 0.00 82 1008.5
20260506012216 62 3 8.0 14.0 0.00 0.00 0.00 82 1008.6
20260506012025 62 346 6.0 10.0 0.00 0.00 0.00 81 1008.6
20260506011824 62 4 9.0 17.0 0.00 0.00 0.00 81 1008.8
20260506011703 63 352 6.0 15.0 0.00 0.00 0.00 81 1008.5
20260506011422 63 356 11.0 17.0 0.00 0.00 0.00 81 1008.5
20260506011219 63 356 7.0 13.0 0.00 0.00 0.00 81 1008.4
20260506011017 63 358 7.0 14.0 0.00 0.00 0.00 81 1008.3
20260506010836 63 360 8.0 12.0 0.00 0.00 0.00 80 1008.2
20260506010625 63 360 8.0 17.0 0.00 0.00 0.00 80 1008.3
20260506010423 63 359 9.0 14.0 0.00 0.00 0.00 80 1008.2
20260506010224 63 338 10.0 15.0 0.00 0.00 0.00 80 1008.2
20260506010020 64 353 6.0 13.0 0.00 0.00 0.00 80 1008.2
20260506005819 64 352 9.0 16.0 0.00 0.00 0.00 79 1008.3
20260506005638 64 343 7.0 13.0 0.00 0.00 0.00 79 1008.1
20260506005417 64 360 9.0 14.0 0.00 0.00 0.00 79 1008.2
20260506005225 64 342 6.0 14.0 0.00 0.00 0.00 79 1008.0
20260506005024 64 10 6.0 15.0 0.00 0.00 0.00 79 1008.2
20260506004822 64 339 8.0 14.0 0.00 0.00 0.00 79 1008.0
20260506004620 64 6 7.0 12.0 0.00 0.00 0.00 79 1008.0
20260506004419 64 9 8.0 13.0 0.00 0.00 0.00 79 1007.7
20260506004218 64 5 8.0 14.0 0.00 0.00 0.00 79 1007.8
20260506004016 64 344 7.0 13.0 0.00 0.00 0.00 79 1008.2
20260506003905 64 15 7.0 13.0 0.00 0.00 0.00 79 1008.5
20260506003623 64 336 9.0 14.0 0.00 0.00 0.00 78 1008.4
20260506003442 65 337 8.0 13.0 0.00 0.00 0.00 79 1008.4
20260506003220 65 336 7.0 12.0 0.00 0.00 0.00 79 1008.3
20260506003019 65 345 6.0 11.0 0.00 0.00 0.00 79 1008.2
20260506002817 65 330 9.0 15.0 0.00 0.00 0.00 79 1008.3
20260506002617 65 354 6.0 12.0 0.00 0.00 0.00 79 1008.3
20260506002424 65 339 6.0 10.0 0.00 0.00 0.00 78 1008.2
20260506002224 65 345 5.0 10.0 0.00 0.00 0.00 78 1008.0
20260506002022 65 349 7.0 15.0 0.00 0.00 0.00 78 1007.9
20260506001841 65 349 6.0 11.0 0.00 0.00 0.00 78 1008.0
20260506001619 65 341 10.0 16.0 0.00 0.00 0.00 78 1008.2
20260506001417 65 356 5.0 11.0 0.00 0.00 0.00 78 1008.0
20260506001215 65 7 9.0 15.0 0.00 0.00 0.00 77 1008.2
20260506001024 65 345 7.0 13.0 0.00 0.00 0.00 78 1008.2
20260506000823 65 330 4.0 8.0 0.00 0.00 0.00 78 1008.4
20260506000621 65 343 4.0 9.0 0.00 0.00 0.00 78 1008.3
20260506000420 65 317 8.0 14.0 0.00 0.00 0.00 77 1008.3
20260506000219 65 334 8.0 11.0 0.00 0.00 0.00 77 1008.1
20260506000017 65 339 6.0 12.0 0.00 0.00 0.00 76 1007.8
20260505235846 66 340 9.0 13.0 0.00 0.00 0.00 76 1007.8
20260505235624 66 329 5.0 9.0 0.00 0.00 0.00 76 1008.2
20260505235422 66 345 7.0 13.0 0.00 0.00 0.00 76 1008.2
20260505235241 66 341 8.0 14.0 0.00 0.00 0.00 76 1008.3
20260505235040 66 330 14.0 20.0 0.00 0.00 0.00 75 1008.2
20260505234819 66 350 7.0 12.0 0.00 0.00 0.00 75 1008.0
20260505234637 66 337 8.0 17.0 0.00 0.00 0.00 75 1008.0
20260505234425 66 351 10.0 13.0 0.00 0.00 0.00 75 1008.0
20260505234224 66 348 12.0 20.0 0.00 0.00 0.00 75 1008.0
20260505234022 67 353 5.0 11.0 0.00 0.00 0.00 76 1007.8
20260505233823 67 343 12.0 16.0 0.00 0.00 0.00 75 1007.9
20260505233700 67 336 12.0 21.0 0.00 0.00 0.00 75 1008.0
20260505233438 67 343 9.0 13.0 0.00 0.00 0.00 75 1008.2
20260505233216 67 348 11.0 18.0 0.00 0.00 0.00 75 1008.2
20260505233026 67 335 12.0 20.0 0.00 0.00 0.00 75 1008.3
20260505232823 67 316 11.0 15.0 0.00 0.00 0.00 75 1008.2
20260505232622 67 314 11.0 17.0 0.00 0.00 0.00 75 1008.3
20260505232421 68 321 15.0 25.0 0.00 0.00 0.00 74 1008.3
20260505232219 68 330 9.0 19.0 0.00 0.00 0.00 75 1008.2
20260505232018 68 319 9.0 13.0 0.00 0.00 0.00 75 1007.9
20260505231816 68 337 7.0 13.0 0.00 0.00 0.00 75 1007.6
20260505231625 68 340 11.0 17.0 0.00 0.00 0.00 75 1007.5
20260505231423 69 348 11.0 17.0 0.00 0.00 0.00 74 1007.6
20260505231222 69 336 10.0 19.0 0.00 0.00 0.00 74 1007.6
20260505231020 69 338 13.0 23.0 0.00 0.00 0.00 74 1007.6
20260505230839 69 334 12.0 17.0 0.00 0.00 0.00 73 1007.5
20260505230416 69 345 7.0 17.0 0.00 0.00 0.00 73 1007.8
20260505230225 69 323 12.0 16.0 0.00 0.00 0.00 72 1007.8
20260505230023 70 317 16.0 22.0 0.00 0.00 0.00 72 1007.6
20260505225902 70 316 18.0 27.0 0.00 0.00 0.00 72 1007.8
20260505225620 70 321 15.0 19.0 0.00 0.00 0.00 72 1007.5
20260505225420 70 318 14.0 20.0 0.00 0.00 0.00 72 1007.6
20260505225217 70 323 16.0 21.0 0.00 0.00 0.00 72 1007.6
20260505225016 70 323 11.0 15.0 0.00 0.00 0.00 73 1007.7
20260505224924 70 320 11.0 15.0 0.00 0.00 0.00 73 1007.6
20260505224624 70 327 15.0 24.0 0.00 0.00 0.00 72 1007.5
20260505224422 70 323 13.0 18.0 0.00 0.00 0.00 72 1007.7
20260505224220 71 343 11.0 22.0 0.00 0.00 0.00 72 1007.7
20260505224019 71 346 12.0 17.0 0.00 0.00 0.00 72 1007.8
20260505223817 71 327 9.0 17.0 0.00 0.00 0.00 73 1007.9
20260505223615 71 322 9.0 13.0 0.00 0.00 0.00 73 1007.8
20260505223424 71 308 13.0 18.0 0.00 0.00 0.00 72 1007.7
20260505223223 71 312 17.0 25.0 0.00 0.00 0.00 72 1007.7
20260505223041 71 312 19.0 23.0 0.00 0.00 0.00 72 1007.8
20260505222821 71 322 13.0 18.0 0.00 0.00 0.00 72 1007.7
20260505222618 71 317 18.0 21.0 0.00 0.00 0.00 72 1007.6
20260505222417 71 304 14.0 17.0 0.00 0.00 0.00 72 1007.5
20260505222225 72 316 16.0 20.0 0.00 0.00 0.00 71 1007.4
20260505222024 72 316 15.0 18.0 0.00 0.00 0.00 72 1007.5
20260505221824 72 317 13.0 20.0 0.00 0.00 0.00 71 1007.6
20260505221621 72 319 12.0 17.0 0.00 0.00 0.00 71 1007.6
20260505221420 73 318 17.0 22.0 0.00 0.00 0.00 71 1007.6
20260505221218 73 312 11.0 16.0 0.00 0.00 0.00 72 1007.3
20260505221016 73 333 9.0 14.0 0.00 0.00 0.00 71 1007.3
20260505220825 73 319 13.0 20.0 0.00 0.00 0.00 71 1007.1
20260505220645 74 346 8.0 14.0 0.00 0.00 0.00 71 1007.3
20260505220423 74 335 6.0 13.0 0.00 0.00 0.00 71 1007.2
20260505220221 74 322 9.0 13.0 0.00 0.00 0.00 71 1007.1
20260505220019 74 323 12.0 17.0 0.00 0.00 0.00 70 1007.1
20260505215820 75 345 6.0 11.0 0.00 0.00 0.00 70 1007.0
20260505215616 75 358 9.0 16.0 0.00 0.00 0.00 68 1006.9
20260505215425 75 342 10.0 17.0 0.00 0.00 0.00 68 1006.9
20260505215244 76 336 8.0 16.0 0.00 0.00 0.00 67 1006.9
20260505215022 76 317 9.0 12.0 0.00 0.00 0.00 64 1006.8
20260505214820 78 356 8.0 13.0 0.00 0.00 0.00 64 1006.9
20260505214619 78 336 9.0 15.0 0.00 0.00 0.00 64 1006.8
20260505214418 78 337 11.0 17.0 0.00 0.00 0.00 63 1006.8
20260505214216 78 320 12.0 17.0 0.00 0.00 0.00 64 1006.7
20260505214025 79 314 12.0 16.0 0.00 0.00 0.00 64 1006.8
20260505213823 78 320 8.0 14.0 0.00 0.00 0.00 64 1006.7
20260505213622 78 320 10.0 13.0 0.00 0.00 0.00 64 1006.7
20260505213440 77 296 12.0 17.0 0.00 0.00 0.00 65 1006.7
20260505213219 78 303 13.0 19.0 0.00 0.00 0.00 65 1006.8
20260505213018 77 304 17.0 21.0 0.00 0.00 0.00 64 1006.8
20260505212816 77 301 12.0 15.0 0.00 0.00 0.00 66 1006.8
20260505212625 77 293 15.0 18.0 0.00 0.00 0.00 65 1007.1
20260505212423 78 295 13.0 17.0 0.00 0.00 0.00 65 1006.9
20260505212223 79 300 12.0 16.0 0.00 0.00 0.00 65 1006.7
20260505212020 80 333 9.0 15.0 0.00 0.00 0.00 64 1006.4
20260505211818 79 314 8.0 13.0 0.00 0.00 0.00 65 1006.8
20260505211617 78 323 10.0 18.0 0.00 0.00 0.00 66 1006.6
20260505211436 78 308 9.0 12.0 0.00 0.00 0.00 66 1006.6
20260505211224 78 311 10.0 15.0 0.00 0.00 0.00 66 1006.9
20260505211024 78 318 12.0 17.0 0.00 0.00 0.00 65 1006.8
20260505210843 79 321 13.0 17.0 0.00 0.00 0.00 64 1007.0
20260505210620 79 335 9.0 16.0 0.00 0.00 0.00 63 1007.0
20260505210419 79 345 7.0 11.0 0.00 0.00 0.00 64 1007.0
20260505210217 79 311 10.0 18.0 0.00 0.00 0.00 64 1007.0
20260505210015 79 331 10.0 15.0 0.00 0.00 0.00 63 1007.2
20260505205824 80 314 14.0 21.0 0.00 0.00 0.00 63 1007.1
20260505205623 80 312 10.0 14.0 0.00 0.00 0.00 64 1007.1
20260505205423 80 293 15.0 21.0 0.00 0.00 0.00 64 1007.1
20260505205220 80 306 12.0 17.0 0.00 0.00 0.00 63 1007.0
20260505205018 80 327 11.0 16.0 0.00 0.00 0.00 62 1006.8
20260505204818 81 293 14.0 19.0 0.00 0.00 0.00 62 1006.9
20260505204628 81 278 14.0 18.0 0.00 0.00 0.00 61 1007.0
20260505204424 80 308 10.0 16.0 0.00 0.00 0.00 63 1007.1
20260505204223 80 293 13.0 16.0 0.00 0.00 0.00 62 1007.0
20260505204021 81 289 18.0 23.0 0.00 0.00 0.00 61 1007.1
20260505203819 82 306 10.0 14.0 0.00 0.00 0.00 62 1007.0
20260505203638 81 327 8.0 11.0 0.00 0.00 0.00 62 1007.1
20260505203416 81 304 13.0 19.0 0.00 0.00 0.00 62 1007.1
20260505203225 81 290 12.0 15.0 0.00 0.00 0.00 61 1007.0
20260505203027 81 286 14.0 18.0 0.00 0.00 0.00 61 1006.9
20260505202822 81 281 12.0 14.0 0.00 0.00 0.00 61 1006.8
20260505202621 81 278 13.0 17.0 0.00 0.00 0.00 61 1006.8
20260505202419 80 308 10.0 13.0 0.00 0.00 0.00 62 1006.9
20260505202218 80 298 14.0 21.0 0.00 0.00 0.00 61 1007.1
20260505202016 79 293 13.0 20.0 0.00 0.00 0.00 62 1007.3
20260505201825 79 307 15.0 17.0 0.00 0.00 0.00 61 1007.0
20260505201644 79 279 11.0 16.0 0.00 0.00 0.00 61 1007.0
20260505201442 80 297 13.0 18.0 0.00 0.00 0.00 60 1007.0
20260505201220 81 293 14.0 17.0 0.00 0.00 0.00 59 1007.0
20260505201019 81 281 10.0 14.0 0.00 0.00 0.00 58 1007.0
20260505200818 82 305 13.0 16.0 0.00 0.00 0.00 55 1006.9
20260505200616 81 293 9.0 15.0 0.00 0.00 0.00 56 1007.0
20260505200425 80 293 13.0 18.0 0.00 0.00 0.00 55 1007.0
20260505200243 79 282 13.0 16.0 0.00 0.00 0.00 57 1007.0
20260505200022 79 291 16.0 19.0 0.00 0.00 0.00 55 1007.2
20260505195820 79 290 17.0 21.0 0.00 0.00 0.00 54 1007.2
20260505195619 79 297 14.0 18.0 0.00 0.00 0.00 54 1007.1
20260505195418 80 288 14.0 20.0 0.00 0.00 0.00 53 1007.2
20260505195216 81 291 16.0 21.0 0.00 0.00 0.00 51 1007.1
20260505195025 82 277 15.0 19.0 0.00 0.00 0.00 50 1006.9
20260505194823 81 283 16.0 24.0 0.00 0.00 0.00 49 1007.0
20260505194622 81 285 19.0 23.0 0.00 0.00 0.00 47 1006.8
20260505194420 81 290 19.0 22.0 0.00 0.00 0.00 47 1007.0
20260505194239 81 289 13.0 20.0 0.00 0.00 0.00 48 1006.9
20260505194037 81 292 17.0 24.0 0.00 0.00 0.00 46 1006.7
20260505193816 82 277 14.0 20.0 0.00 0.00 0.00 45 1006.7
20260505193624 82 276 13.0 18.0 0.00 0.00 0.00 47 1006.9
20260505193423 82 289 14.0 18.0 0.00 0.00 0.00 48 1006.8
20260505193241 81 276 20.0 25.0 0.00 0.00 0.00 46 1006.9
20260505193020 80 302 15.0 21.0 0.00 0.00 0.00 47 1006.7
20260505192858 80 283 18.0 23.0 0.00 0.00 0.00 47 1007.0
20260505192617 80 288 17.0 23.0 0.00 0.00 0.00 48 1007.1
20260505192415 81 300 17.0 21.0 0.00 0.00 0.00 48 1007.0
20260505192224 80 301 15.0 22.0 0.00 0.00 0.00 50 1007.0
20260505192043 80 303 19.0 25.0 0.00 0.00 0.00 49 1006.9
20260505191821 82 281 18.0 23.0 0.00 0.00 0.00 50 1006.8
20260505191620 83 262 12.0 15.0 0.00 0.00 0.00 59 1006.8
20260505191418 84 249 13.0 21.0 0.00 0.00 0.00 60 1006.6
20260505191217 84 264 11.0 16.0 0.00 0.00 0.00 58 1006.5